TimeEST,TemperatureF,Dew PointF,Humidity,Sea Level PressureIn,VisibilityMPH,Wind Direction,Wind SpeedMPH,Gust SpeedMPH,PrecipitationIn,Events,Conditions,WindDirDegrees,DateUTC
12:52 AM,24.1,16.0,71,29.75,10.0,SSW,4.6,-,N/A,,Overcast,200,2013-12-16 05:52:00
1:52 AM,24.1,17.1,75,29.76,10.0,Calm,Calm,-,N/A,,Overcast,0,2013-12-16 06:52:00
2:52 AM,23.0,18.0,81,29.79,5.0,Calm,Calm,-,0.00,Snow,Light Snow,0,2013-12-16 07:52:00
3:52 AM,26.1,18.0,71,29.79,10.0,WSW,13.8,19.6,0.00,,Overcast,250,2013-12-16 08:52:00
4:52 AM,25.0,12.0,58,29.81,10.0,West,10.4,-,N/A,,Clear,280,2013-12-16 09:52:00
5:52 AM,24.1,7.0,48,29.86,10.0,West,9.2,-,N/A,,Partly Cloudy,280,2013-12-16 10:52:00
6:52 AM,21.9,7.0,53,29.89,10.0,West,6.9,-,N/A,,Clear,280,2013-12-16 11:52:00
7:52 AM,21.9,7.0,53,29.91,10.0,WSW,9.2,-,N/A,,Clear,250,2013-12-16 12:52:00
8:52 AM,23.0,7.0,50,29.95,10.0,West,10.4,20.7,N/A,,Clear,280,2013-12-16 13:52:00
9:52 AM,24.1,7.0,48,29.98,10.0,WNW,13.8,24.2,N/A,,Clear,290,2013-12-16 14:52:00
10:52 AM,25.0,5.0,43,29.98,10.0,WNW,15.0,21.9,N/A,,Clear,290,2013-12-16 15:52:00
11:52 AM,26.1,5.0,41,29.97,10.0,WNW,19.6,26.5,N/A,,Clear,290,2013-12-16 16:52:00
12:52 PM,26.1,3.9,39,29.97,10.0,WNW,20.7,32.2,N/A,,Clear,300,2013-12-16 17:52:00
1:52 PM,26.1,5.0,41,29.98,10.0,WNW,12.7,-,N/A,,Scattered Clouds,300,2013-12-16 18:52:00
2:52 PM,25.0,3.9,41,30.02,10.0,West,20.7,29.9,N/A,,Clear,280,2013-12-16 19:52:00
3:52 PM,23.0,3.9,44,30.05,10.0,West,12.7,20.7,N/A,,Clear,280,2013-12-16 20:52:00
4:52 PM,21.0,3.9,48,30.08,10.0,West,6.9,-,N/A,,Partly Cloudy,280,2013-12-16 21:52:00
5:52 PM,19.9,5.0,52,30.10,10.0,West,6.9,-,N/A,,Clear,270,2013-12-16 22:52:00
6:52 PM,19.9,3.9,50,30.13,10.0,West,8.1,-,N/A,,Clear,280,2013-12-16 23:52:00
7:52 PM,19.9,3.9,50,30.16,10.0,West,6.9,-,N/A,,Clear,260,2013-12-17 00:52:00
8:52 PM,19.0,3.9,52,30.18,10.0,West,8.1,-,N/A,,Clear,280,2013-12-17 01:52:00
9:52 PM,17.1,3.9,56,30.19,10.0,West,3.5,-,N/A,,Clear,270,2013-12-17 02:52:00
10:52 PM,12.9,3.0,65,30.21,10.0,Calm,Calm,-,N/A,,Clear,0,2013-12-17 03:52:00
11:52 PM,9.0,1.9,73,30.21,10.0,WNW,3.5,-,N/A,,Clear,300,2013-12-17 04:52:00